Zurück zum Katalog

STARLINK-3121

AktivKommunikationVLEO
NORAD 49428·PAYLOAD·🇺🇸 United States

Gestartet Nov 13, 2021 von Cape Canaveral Space Force Station

Loading…

Nächste Überflüge (nächste 24 Stunden)

TLE

AktuellSource: CelesTrak SupGP

Epoche: Sep 15, 2026, 02:34 UTC

1 49428C 21104W   26258.10743056  .00006800  00000+0  34869-3 0  2588
2 49428  53.1573  94.9541 0001895 126.6719  95.5349 15.16042073    15

Verfolge STARLINK-3121 in Echtzeit mit AllMySat

Download on the App Store